Weather History for Beatrice, NE

Change the Weather History Date:

Tuesday, October 23, 2012

  Actual Average Record
Temperature  
Mean Temperature 68 °F -  
Max Temperature 82 °F 62 °F 84 °F (1975)
Min Temperature 53 °F 41 °F 20 °F (1981)
Cooling Degree Days 2    
Growing Degree Days 18 (Base 50)    
Moisture  
Dew Point 54 °F    
Average Humidity 75    
Maximum Humidity 95    
Minimum Humidity 30    
Precipitation  
Precipitation 0.00 in - - ()
Sea Level Pressure  
Sea Level Pressure 29.72 in    
Wind  
Wind Speed 6 mph (SSW)    
Max Wind Speed 20 mph    
Max Gust Speed 25 mph    
Visibility 6 miles    
Events Fog    
Averages and records for this station are not official NWS values.
T = Trace of Precipitation, MM = Missing Value Source: NWS Daily Summary

Daily Weather History Graph

Daily Weather History Graph

Search for Another Location

Airport:

Trip Planner

Search our weather history database for the weather conditions in past years. The results will help you decide how hot, cold, wet, or windy it might be!

Date:

Astronomy

Oct. 23, 2012 Rise Set
Actual Time 7:47 AM CDT 6:34 PM CDT
Civil Twilight 7:19 AM CDT 7:02 PM CDT
Nautical Twilight 6:47 AM CDT 7:34 PM CDT
Astronomical Twilight 6:15 AM CDT 8:05 PM CDT
Moon 3:19 PM CDT (10/23) 1:39 AM CDT (10/23)
Length of Visible Light 11h 43m
Length of Day
10h 47m
Waxing Gibbous, 67% of the Moon is Illuminated
Oct 23
Waxing Gibbous
Oct 29
Full
Nov 6
Last Quarter
Nov 13
New
Nov 20
First Quarter

Hourly Weather History & Observations

Time (CDT) Temp. Heat Index Dew Point Humidity Pressure Visibility Wind Dir Wind Speed Gust Speed Precip Events Conditions
12:15 AM 54.7 °F - 51.6 °F 89% 29.82 in 0.5 mi WSW 4.6 mph - N/A Fog Fog
12:35 AM 54.9 °F - 51.8 °F 89% 29.82 in 0.5 mi WSW 4.6 mph - N/A Fog Fog
12:55 AM 55.4 °F - 51.8 °F 88% 29.81 in 0.8 mi WSW 6.9 mph - N/A   Overcast
1:15 AM 54.7 °F - 51.8 °F 90% 29.81 in 0.5 mi WSW 5.8 mph - N/A Fog Fog
1:35 AM 54.7 °F - 51.6 °F 89% 29.80 in 0.8 mi WSW 4.6 mph - N/A   Overcast
1:55 AM 54.5 °F - 51.4 °F 89% 29.80 in 1.2 mi WSW 4.6 mph - N/A   Overcast
2:15 AM 54.5 °F - 51.4 °F 89% 29.79 in 0.5 mi South 4.6 mph - N/A Fog Fog
2:55 AM 54.1 °F - 51.3 °F 90% 29.78 in 1.5 mi West 3.5 mph - N/A   Overcast
3:15 AM 54.1 °F - 52.0 °F 92% 29.78 in 1.0 mi Calm Calm - N/A   Overcast
3:35 AM 54.1 °F - 52.3 °F 94% 29.77 in 0.5 mi South 3.5 mph - N/A Fog Fog
3:55 AM 53.6 °F - 51.8 °F 94% 29.76 in 0.8 mi Calm Calm - N/A   Overcast
4:15 AM 53.8 °F - 52.0 °F 94% 29.76 in 0.5 mi Calm Calm - N/A Fog Fog
4:35 AM 53.8 °F - 52.2 °F 94% 29.76 in 0.5 mi Calm Calm - N/A Fog Fog
4:55 AM 54.0 °F - 52.3 °F 94% 29.76 in 0.5 mi Calm Calm - N/A Fog Fog
5:15 AM 54.0 °F - 52.5 °F 95% 29.76 in 0.5 mi Calm Calm - N/A Fog Fog
5:35 AM 54.1 °F - 52.7 °F 95% 29.75 in 0.5 mi ENE 3.5 mph - N/A Fog Fog
5:55 AM 54.1 °F - 52.7 °F 95% 29.75 in 0.5 mi Calm Calm - N/A Fog Fog
6:15 AM 55.4 °F - 53.6 °F 94% 29.75 in 0.5 mi Calm Calm - N/A Fog Fog
6:35 AM 54.5 °F - 52.9 °F 94% 29.75 in 1.5 mi NNE 3.5 mph - N/A   Overcast
6:55 AM 54.5 °F - 52.9 °F 94% 29.75 in 2.5 mi NE 3.5 mph - N/A   Overcast
7:15 AM 54.5 °F - 52.9 °F 94% 29.75 in 3.0 mi Calm Calm - N/A   Overcast
7:35 AM 54.7 °F - 53.2 °F 95% 29.75 in 4.0 mi East 4.6 mph - N/A   Overcast
7:55 AM 55.0 °F - 53.6 °F 95% 29.74 in 4.0 mi East 4.6 mph - N/A   Overcast
8:15 AM 55.6 °F - 54.1 °F 95% 29.74 in 3.0 mi East 5.8 mph - N/A   Overcast
8:35 AM 56.3 °F - 54.7 °F 94% 29.74 in 3.0 mi East 5.8 mph - N/A   Overcast
8:55 AM 57.2 °F - 55.4 °F 94% 29.75 in 4.0 mi East 4.6 mph - N/A   Overcast
9:15 AM 58.1 °F - 56.3 °F 94% 29.75 in 4.0 mi East 6.9 mph - N/A   Overcast
9:35 AM 58.8 °F - 57.2 °F 94% 29.74 in 4.0 mi East 5.8 mph - N/A   Overcast
9:55 AM 60.8 °F - 59.0 °F 94% 29.74 in 4.0 mi ESE 4.6 mph - N/A   Overcast
10:15 AM 61.0 °F - 58.8 °F 93% 29.74 in 4.0 mi SE 4.6 mph - N/A   Overcast
10:55 AM 65.1 °F - 61.2 °F 87% 29.72 in 10.0 mi SSE 5.8 mph - N/A   Overcast
11:15 AM 66.4 °F - 62.1 °F 86% 29.72 in 10.0 mi South 8.1 mph - N/A   Overcast
11:35 AM 67.1 °F - 62.4 °F 85% 29.71 in 10.0 mi SSE 5.8 mph - N/A   Overcast
11:55 AM 68.5 °F - 63.0 °F 82% 29.71 in 10.0 mi South 8.1 mph - N/A   Overcast
12:15 PM 69.8 °F - 63.0 °F 79% 29.70 in 10.0 mi South 8.1 mph - N/A   Overcast
12:35 PM 71.4 °F - 62.1 °F 72% 29.70 in 10.0 mi SSW 11.5 mph - N/A   Overcast
12:55 PM 72.7 °F - 60.3 °F 65% 29.69 in 10.0 mi South 15.0 mph 21.9 mph N/A   Overcast
1:15 PM 74.1 °F - 58.1 °F 57% 29.67 in 10.0 mi South 13.8 mph - N/A   Mostly Cloudy
1:35 PM 76.8 °F - 56.7 °F 50% 29.66 in 10.0 mi SSW 16.1 mph 21.9 mph N/A   Scattered Clouds
1:55 PM 78.3 °F - 55.6 °F 45% 29.65 in 10.0 mi South 16.1 mph 21.9 mph N/A   Clear
2:15 PM 79.0 °F - 54.9 °F 43% 29.64 in 10.0 mi South 16.1 mph 21.9 mph N/A   Clear
2:35 PM 80.6 °F 80.3 °F 53.6 °F 39% 29.64 in 10.0 mi South 17.3 mph 25.3 mph N/A   Clear
2:55 PM 81.3 °F - 52.3 °F 37% 29.63 in 10.0 mi SW 15.0 mph 24.2 mph N/A   Clear
3:15 PM 82.2 °F - 51.1 °F 34% 29.63 in 10.0 mi SSW 15.0 mph 23.0 mph N/A   Clear
3:35 PM 82.4 °F - 49.5 °F 32% 29.64 in 10.0 mi SSW 15.0 mph 24.2 mph N/A   Clear
3:55 PM 82.9 °F - 48.4 °F 30% 29.64 in 10.0 mi SW 19.6 mph 25.3 mph N/A   Clear
4:15 PM 82.4 °F - 48.6 °F 31% 29.64 in 10.0 mi SSW 16.1 mph - N/A   Clear
4:35 PM 82.4 °F - 49.3 °F 31% 29.65 in 10.0 mi SSW 13.8 mph 20.7 mph N/A   Clear
4:55 PM 82.4 °F - 50.0 °F 32% 29.65 in 10.0 mi SW 16.1 mph - N/A   Clear
5:15 PM 82.0 °F - 49.8 °F 32% 29.65 in 10.0 mi SSW 11.5 mph 20.7 mph N/A   Clear
5:35 PM 81.5 °F - 49.6 °F 33% 29.66 in 10.0 mi WSW 11.5 mph - N/A   Clear
5:55 PM 79.7 °F - 49.5 °F 35% 29.66 in 10.0 mi WSW 6.9 mph - N/A   Clear
6:15 PM 77.0 °F - 50.2 °F 39% 29.65 in 10.0 mi SW 5.8 mph - N/A   Clear
6:35 PM 73.8 °F - 50.2 °F 43% 29.67 in 10.0 mi West 8.1 mph - N/A   Clear
6:55 PM 72.3 °F - 48.2 °F 42% 29.68 in 10.0 mi West 5.8 mph - N/A   Clear
7:15 PM 68.7 °F - 47.7 °F 47% 29.69 in 10.0 mi WNW 5.8 mph - N/A   Clear
7:35 PM 66.0 °F - 51.6 °F 60% 29.70 in 10.0 mi Calm Calm - N/A   Clear
7:55 PM 64.4 °F - 54.3 °F 70% 29.71 in 10.0 mi NNW 4.6 mph - N/A   Clear
8:15 PM 61.7 °F - 55.0 °F 79% 29.72 in 10.0 mi NNW 4.6 mph - N/A   Clear
8:35 PM 59.0 °F - 52.5 °F 79% 29.73 in 10.0 mi North 4.6 mph - N/A   Clear
8:55 PM 59.7 °F - 55.2 °F 85% 29.73 in 7.0 mi North 5.8 mph - N/A   Clear
9:15 PM 59.5 °F - 54.0 °F 82% 29.73 in 5.0 mi North 4.6 mph - N/A   Haze
9:35 PM 55.9 °F - 52.3 °F 88% 29.73 in 4.0 mi North 4.6 mph - N/A   Clear
9:55 PM 58.8 °F - 55.2 °F 88% 29.74 in 4.0 mi North 6.9 mph - N/A   Clear
10:15 PM 59.0 °F - 55.0 °F 87% 29.74 in 4.0 mi Calm Calm - N/A   Clear
10:35 PM 55.9 °F - 52.5 °F 88% 29.76 in 3.0 mi North 4.6 mph - N/A   Clear
10:55 PM 55.4 °F - 52.0 °F 88% 29.76 in 3.0 mi Calm Calm - N/A   Clear
11:15 PM 55.9 °F - 52.9 °F 89% 29.76 in 2.5 mi East 3.5 mph - N/A   Clear
11:35 PM 55.9 °F - 52.9 °F 89% 29.76 in 3.0 mi East 3.5 mph - N/A   Clear
11:55 PM 55.2 °F - 52.2 °F 89% 29.76 in 2.0 mi Calm Calm - N/A   Clear